Location: Fond Mahaut
(18.0707°N, 63.0465°W)
Time: 10:29:23
(UTC+00:00)

IRIDIUM 103 - Pass Details

Date: 08 December 2019
Orbit: 776 x 779 km, 86.4° (Epoch: 19 January)

Event Time Altitude Azimuth Distance (km) Brightness Sun altitude
Rises 23:23:16 0° 184° (S) 3,247 7.8 -24.6°
Reaches altitude 10° 23:25:37 10° 186° (S) 2,321 7.0 -25.2°
Maximum altitude 23:30:48 73° 270° (W) 814 4.4 -26.3°
Enters shadow 23:32:54 37° 346° (NNW) 1,201 5.2 -26.8°
